Meteo pe oră la Bolshie Kushmany

Astăzi, 9 Mai, Duminică

Timp Temperatura Precipitaţii Vânt Presiune Umiditate
00:00 +11°C° 0 mm 4 m/s 747 mmHg 79%
01:00 +10°C° 0 mm 4 m/s 747 mmHg 78%
02:00 +10°C° 0 mm 3 m/s 747 mmHg 77%
03:00 +10°C° 0 mm 3 m/s 747 mmHg 75%
04:00 +10°C° 0 mm 3 m/s 747 mmHg 76%
05:00 +11°C° 0 mm 3 m/s 747 mmHg 76%
06:00 +12°C° 0 mm 3 m/s 747 mmHg 76%
07:00 +14°C° 0 mm 4 m/s 747 mmHg 70%
08:00 +16°C° 0 mm 5 m/s 747 mmHg 64%
09:00 +17°C° 0 mm 6 m/s 747 mmHg 59%
10:00 +19°C° 0 mm 6 m/s 747 mmHg 58%
11:00 +19°C° 0 mm 6 m/s 747 mmHg 58%
12:00 +20°C° 0 mm 6 m/s 747 mmHg 58%
13:00 +20°C° 0 mm 6 m/s 747 mmHg 58%
14:00 +21°C° 0 mm 5 m/s 747 mmHg 58%
15:00 +21°C° 0 mm 5 m/s 747 mmHg 59%
16:00 +20°C° 0 mm 5 m/s 747 mmHg 62%
17:00 +19°C° 0 mm 5 m/s 747 mmHg 65%
18:00 +19°C° 0 mm 5 m/s 747 mmHg 68%
19:00 +17°C° 0 mm 5 m/s 747 mmHg 71%
20:00 +17°C° 0 mm 4 m/s 747 mmHg 73%
21:00 +15°C° 0 mm 4 m/s 748 mmHg 76%
22:00 +14°C° 0 mm 3 m/s 748 mmHg 77%
23:00 +14°C° 0 mm 3 m/s 748 mmHg 79%

Mâine, 10 Mai, Luni

Timp Temperatura Precipitaţii Vânt Presiune Umiditate
00:00 +14°C° 0 mm 2 m/s 748 mmHg 80%
01:00 +14°C° 0 mm 2 m/s 749 mmHg 81%
02:00 +14°C° 0 mm 2 m/s 749 mmHg 82%
03:00 +14°C° 0 mm 1 m/s 750 mmHg 83%
04:00 +14°C° 0 mm 2 m/s 750 mmHg 83%
05:00 +13°C° 0 mm 3 m/s 750 mmHg 83%
06:00 +13°C° 0 mm 3 m/s 751 mmHg 82%
07:00 +14°C° 0 mm 3 m/s 751 mmHg 78%
08:00 +17°C° 0 mm 3 m/s 751 mmHg 73%
09:00 +18°C° 0 mm 3 m/s 752 mmHg 68%
10:00 +19°C° 0 mm 3 m/s 752 mmHg 64%
11:00 +20°C° 0 mm 2 m/s 752 mmHg 59%
12:00 +21°C° 0 mm 2 m/s 753 mmHg 55%
13:00 +23°C° 0 mm 2 m/s 753 mmHg 53%
14:00 +23°C° 0 mm 2 m/s 753 mmHg 51%
15:00 +24°C° 0 mm 2 m/s 754 mmHg 49%
16:00 +22°C° 0.1 mm 3 m/s 754 mmHg 55%
17:00 +21°C° 0.1 mm 3 m/s 754 mmHg 62%
18:00 +20°C° 0.1 mm 4 m/s 754 mmHg 69%
19:00 +18°C° 0.1 mm 4 m/s 755 mmHg 76%
20:00 +16°C° 0.1 mm 5 m/s 755 mmHg 83%
21:00 +14°C° 0.1 mm 5 m/s 756 mmHg 90%
22:00 +13°C° 0 mm 5 m/s 756 mmHg 91%
23:00 +13°C° 0 mm 4 m/s 756 mmHg 92%

Poimâine, 11 Mai, Marţi

Timp Temperatura Precipitaţii Vânt Presiune Umiditate
00:00 +12°C° 0 mm 4 m/s 756 mmHg 94%
01:00 +12°C° 0 mm 4 m/s 756 mmHg 94%
02:00 +11°C° 0 mm 4 m/s 756 mmHg 95%
03:00 +11°C° 0 mm 4 m/s 757 mmHg 95%
04:00 +12°C° 0 mm 4 m/s 757 mmHg 93%
05:00 +13°C° 0 mm 3 m/s 757 mmHg 91%
06:00 +13°C° 0 mm 3 m/s 757 mmHg 88%
07:00 +16°C° 0 mm 3 m/s 758 mmHg 81%
08:00 +18°C° 0 mm 4 m/s 758 mmHg 74%
09:00 +19°C° 0 mm 4 m/s 758 mmHg 67%
10:00 +20°C° 0 mm 4 m/s 758 mmHg 61%
11:00 +21°C° 0 mm 3 m/s 758 mmHg 56%
12:00 +24°C° 0 mm 3 m/s 759 mmHg 51%
13:00 +24°C° 0 mm 3 m/s 758 mmHg 49%
14:00 +24°C° 0 mm 3 m/s 758 mmHg 47%
15:00 +25°C° 0 mm 3 m/s 758 mmHg 45%
16:00 +24°C° 0 mm 2 m/s 758 mmHg 50%
17:00 +23°C° 0 mm 2 m/s 759 mmHg 56%
18:00 +21°C° 0 mm 2 m/s 759 mmHg 61%
19:00 +20°C° 0 mm 2 m/s 759 mmHg 61%
20:00 +19°C° 0 mm 2 m/s 759 mmHg 60%
21:00 +18°C° 0 mm 2 m/s 759 mmHg 60%
22:00 +17°C° 0 mm 2 m/s 759 mmHg 62%
23:00 +17°C° 0 mm 2 m/s 759 mmHg 64%

12 Mai, Miercuri

Timp Temperatura Precipitaţii Vânt Presiune Umiditate
00:00 +16°C° 0 mm 2 m/s 759 mmHg 65%
01:00 +16°C° 0 mm 2 m/s 759 mmHg 67%
02:00 +16°C° 0 mm 2 m/s 759 mmHg 69%
03:00 +16°C° 0 mm 2 m/s 759 mmHg 71%
04:00 +16°C° 0 mm 2 m/s 759 mmHg 71%
05:00 +16°C° 0 mm 2 m/s 759 mmHg 71%
06:00 +17°C° 0 mm 2 m/s 760 mmHg 72%
07:00 +18°C° 0 mm 2 m/s 760 mmHg 66%
08:00 +20°C° 0 mm 3 m/s 760 mmHg 61%
09:00 +21°C° 0 mm 3 m/s 760 mmHg 56%
10:00 +22°C° 0 mm 3 m/s 760 mmHg 52%
11:00 +24°C° 0 mm 3 m/s 760 mmHg 49%
12:00 +25°C° 0 mm 3 m/s 760 mmHg 46%
13:00 +25°C° 0 mm 3 m/s 760 mmHg 45%
14:00 +25°C° 0 mm 4 m/s 760 mmHg 44%
15:00 +25°C° 0 mm 4 m/s 759 mmHg 43%
16:00 +24°C° 0 mm 3 m/s 759 mmHg 49%
17:00 +24°C° 0 mm 3 m/s 759 mmHg 55%
18:00 +23°C° 0 mm 2 m/s 759 mmHg 60%
19:00 +20°C° 0 mm 2 m/s 759 mmHg 63%
20:00 +19°C° 0 mm 2 m/s 759 mmHg 65%
21:00 +17°C° 0 mm 2 m/s 759 mmHg 67%
22:00 +17°C° 0 mm 2 m/s 759 mmHg 67%
23:00 +17°C° 0 mm 2 m/s 759 mmHg 68%

13 Mai, Joi

Timp Temperatura Precipitaţii Vânt Presiune Umiditate
00:00 +16°C° 0 mm 2 m/s 759 mmHg 68%
01:00 +16°C° 0 mm 2 m/s 759 mmHg 69%
02:00 +16°C° 0 mm 2 m/s 759 mmHg 69%
03:00 +15°C° 0 mm 2 m/s 759 mmHg 70%
04:00 +16°C° 0 mm 2 m/s 759 mmHg 69%
05:00 +16°C° 0 mm 2 m/s 759 mmHg 69%
06:00 +17°C° 0 mm 2 m/s 759 mmHg 68%
07:00 +18°C° 0 mm 3 m/s 759 mmHg 61%
08:00 +20°C° 0 mm 4 m/s 760 mmHg 55%
09:00 +21°C° 0 mm 5 m/s 760 mmHg 48%
10:00 +22°C° 0 mm 5 m/s 759 mmHg 45%
11:00 +23°C° 0 mm 5 m/s 759 mmHg 42%
12:00 +25°C° 0 mm 5 m/s 759 mmHg 39%
13:00 +25°C° 0 mm 5 m/s 759 mmHg 39%
14:00 +25°C° 0 mm 5 m/s 759 mmHg 38%
15:00 +25°C° 0 mm 5 m/s 759 mmHg 38%
16:00 +25°C° 0 mm 4 m/s 758 mmHg 44%
17:00 +24°C° 0 mm 3 m/s 758 mmHg 51%
18:00 +22°C° 0 mm 3 m/s 758 mmHg 57%
19:00 +20°C° 0 mm 3 m/s 758 mmHg 59%
20:00 +19°C° 0 mm 3 m/s 758 mmHg 60%
21:00 +18°C° 0 mm 2 m/s 758 mmHg 62%
22:00 +17°C° 0 mm 2 m/s 758 mmHg 62%
23:00 +17°C° 0 mm 2 m/s 758 mmHg 61%

14 Mai, Vineri

Timp Temperatura Precipitaţii Vânt Presiune Umiditate
00:00 +16°C° 0 mm 2 m/s 758 mmHg 61%
01:00 +16°C° 0 mm 2 m/s 758 mmHg 61%
02:00 +16°C° 0 mm 2 m/s 758 mmHg 61%
03:00 +16°C° 0 mm 2 m/s 758 mmHg 61%
04:00 +16°C° 0 mm 2 m/s 758 mmHg 63%
05:00 +17°C° 0 mm 2 m/s 758 mmHg 65%
06:00 +17°C° 0 mm 2 m/s 758 mmHg 67%
07:00 +19°C° 0 mm 3 m/s 758 mmHg 62%
08:00 +20°C° 0 mm 4 m/s 758 mmHg 56%
09:00 +22°C° 0 mm 5 m/s 758 mmHg 51%
10:00 +23°C° 0 mm 5 m/s 758 mmHg 48%
11:00 +25°C° 0 mm 5 m/s 758 mmHg 45%
12:00 +24°C° 0 mm 6 m/s 758 mmHg 42%
13:00 +26°C° 0 mm 6 m/s 757 mmHg 42%
14:00 +26°C° 0 mm 6 m/s 757 mmHg 42%
15:00 +27°C° 0 mm 6 m/s 757 mmHg 42%
16:00 +26°C° 0 mm 5 m/s 757 mmHg 47%
17:00 +23°C° 0 mm 4 m/s 756 mmHg 51%
18:00 +22°C° 0 mm 4 m/s 756 mmHg 56%
19:00 +21°C° 0 mm 3 m/s 756 mmHg 57%
20:00 +20°C° 0 mm 3 m/s 756 mmHg 58%
21:00 +18°C° 0 mm 3 m/s 756 mmHg 60%
22:00 +18°C° 0 mm 3 m/s 756 mmHg 60%
23:00 +18°C° 0 mm 3 m/s 756 mmHg 60%
Arată mai mult

Formular de consimțământ

Meteoprog și furnizorii noștri de servicii pot stoca și accesa date personale, precum cookies, identificatori de dispozitiv sau alte tehnologii similare pe dispozitivul dumneavoastră și procesa astfel de date pentru a personaliza conținutul și reclamele, dar și pentru a oferi caracteristici de social media și pentru a analiza traficul.

  • Stocarea și/sau accesarea informațiilor pe dispozitivul dumneavoastră

    Cookies, identificatori de dispozitiv sau alte informații pot fi stocate sau accesate pe dispozitiv în scopurile indicate mai sus.

  • Reclame și conținut personalizat, evaluarea reclamelor și a conținutului, informații despre audiențe și dezvoltarea produselor

    Reclamele și conținutul pot fi personalizate pe baza unui profil. Pot fi adăugate date suplimentare pentru a personaliza mai bine reclamele și conținutul. Performanța reclamelor și conținutului poate fi măsurată. Pot fi obținute informații despre utilizatorii care au văzut reclamele și conținutul. Aceste date pot fi utilizate pentru a dezvolta sau îmbunătăți experiența utilizatorilor, sistemele și software-ul.

Dând clic pe ‘Sunt de acord’, permiteți utilizarea cookie-urilor menționate, a identificatorilor de dispozitiv, balizelor web sau altor tehnologii similare. Setările pot fi modificate din browser-ul dispozitivului dumneavoastră.

În anumite scopuri, interesele legitime pot prima asupra consimțământului. Puteți citi mai multe informații în acest sens în Politica privind Confidențialitatea Datelor și Cookie.